| time (UTC) | temp F | wind direction | speed MPH | gust MPH | rain 1hr in | rain 24hr in | rain mn in | humidity % | barometer mb |
| 20260509203557 | 72 | 0 | 0.0 | 2.0 | 0.00 | 0.00 | 0.00 | 76 | 1011.8 |
| 20260509203104 | 73 | 0 | 0.0 | 4.0 | 0.00 | 0.00 | 0.00 | 71 | 1011.8 |
| 20260509202557 | 73 | 317 | 1.0 | 4.0 | 0.00 | 0.00 | 0.00 | 69 | 1011.9 |
| 20260509202058 | 73 | 302 | 1.0 | 6.0 | 0.00 | 0.00 | 0.00 | 70 | 1012.0 |
| 20260509201559 | 73 | 347 | 0.0 | 6.0 | 0.00 | 0.00 | 0.00 | 70 | 1012.0 |
| 20260509201056 | 72 | 301 | 2.0 | 6.0 | 0.00 | 0.00 | 0.00 | 71 | 1012.0 |
| 20260509200556 | 72 | 329 | 0.0 | 4.0 | 0.00 | 0.00 | 0.00 | 74 | 1012.0 |
| 20260509200106 | 72 | 315 | 0.0 | 4.0 | 0.00 | 0.00 | 0.00 | 73 | 1011.9 |
| 20260509195559 | 72 | 0 | 0.0 | 3.0 | 0.00 | 0.00 | 0.00 | 74 | 1012.0 |
| 20260509195100 | 72 | 192 | 1.0 | 3.0 | 0.00 | 0.00 | 0.00 | 71 | 1011.9 |
| 20260509194559 | 72 | 0 | 0.0 | 2.0 | 0.00 | 0.00 | 0.00 | 74 | 1011.9 |
| 20260509194057 | 72 | 0 | 0.0 | 2.0 | 0.00 | 0.00 | 0.00 | 76 | 1011.9 |
| 20260509193559 | 71 | 0 | 0.0 | 4.0 | 0.00 | 0.00 | 0.00 | 74 | 1012.0 |
| 20260509193127 | 72 | 175 | 1.0 | 6.0 | 0.00 | 0.00 | 0.00 | 71 | 1011.9 |
| 20260509192557 | 72 | 311 | 0.0 | 6.0 | 0.00 | 0.00 | 0.00 | 73 | 1011.9 |
| 20260509192059 | 72 | 0 | 0.0 | 2.0 | 0.00 | 0.00 | 0.00 | 76 | 1012.0 |
| 20260509191616 | 72 | 0 | 0.0 | 7.0 | 0.00 | 0.00 | 0.00 | 73 | 1012.2 |
| 20260509191057 | 72 | 5 | 1.0 | 7.0 | 0.00 | 0.00 | 0.00 | 71 | 1012.2 |
| 20260509190557 | 72 | 273 | 1.0 | 4.0 | 0.00 | 0.00 | 0.00 | 73 | 1012.2 |
| 20260509190117 | 71 | 101 | 1.0 | 4.0 | 0.00 | 0.00 | 0.00 | 73 | 1012.2 |
| 20260509185557 | 72 | 0 | 1.0 | 3.0 | 0.00 | 0.00 | 0.00 | 73 | 1012.3 |
| 20260509185057 | 71 | 0 | 0.0 | 3.0 | 0.00 | 0.00 | 0.00 | 74 | 1012.3 |
| 20260509184603 | 71 | 0 | 1.0 | 3.0 | 0.00 | 0.00 | 0.00 | 75 | 1012.3 |
| 20260509184057 | 71 | 0 | 1.0 | 3.0 | 0.00 | 0.00 | 0.00 | 75 | 1012.4 |
| 20260509183557 | 71 | 210 | 1.0 | 5.0 | 0.00 | 0.00 | 0.00 | 75 | 1012.4 |
| 20260509183105 | 71 | 0 | 1.0 | 5.0 | 0.00 | 0.00 | 0.00 | 74 | 1012.5 |
| 20260509182557 | 71 | 169 | 0.0 | 3.0 | 0.00 | 0.00 | 0.00 | 74 | 1012.6 |
| 20260509182056 | 71 | 5 | 0.0 | 5.0 | 0.00 | 0.00 | 0.00 | 74 | 1012.7 |
| 20260509181557 | 71 | 0 | 0.0 | 5.0 | 0.00 | 0.00 | 0.00 | 73 | 1012.7 |
| 20260509181057 | 71 | 313 | 0.0 | 3.0 | 0.00 | 0.00 | 0.00 | 74 | 1012.7 |
| 20260509180557 | 70 | 199 | 1.0 | 3.0 | 0.00 | 0.00 | 0.00 | 74 | 1012.6 |
| 20260509180101 | 70 | 0 | 1.0 | 2.0 | 0.00 | 0.00 | 0.00 | 73 | 1012.5 |
| 20260509175557 | 70 | 248 | 1.0 | 2.0 | 0.00 | 0.00 | 0.00 | 74 | 1012.4 |
| 20260509175058 | 70 | 0 | 0.0 | 2.0 | 0.00 | 0.00 | 0.00 | 77 | 1012.4 |
| 20260509174558 | 70 | 0 | 0.0 | 2.0 | 0.00 | 0.00 | 0.00 | 76 | 1012.4 |
| 20260509174100 | 70 | 186 | 0.0 | 2.0 | 0.00 | 0.00 | 0.00 | 77 | 1012.4 |
| 20260509173554 | 69 | 194 | 0.0 | 2.0 | 0.00 | 0.00 | 0.00 | 76 | 1012.4 |
| 20260509173105 | 69 | 218 | 0.0 | 4.0 | 0.00 | 0.00 | 0.00 | 77 | 1012.3 |
| 20260509172600 | 69 | 177 | 0.0 | 5.0 | 0.00 | 0.00 | 0.00 | 74 | 1012.2 |
| 20260509172058 | 69 | 214 | 2.0 | 5.0 | 0.00 | 0.00 | 0.00 | 74 | 1012.4 |
| 20260509171618 | 70 | 271 | 1.0 | 5.0 | 0.00 | 0.00 | 0.00 | 74 | 1012.6 |
| 20260509171057 | 69 | 206 | 1.0 | 3.0 | 0.00 | 0.00 | 0.00 | 79 | 1012.7 |
| 20260509170557 | 68 | 219 | 1.0 | 4.0 | 0.00 | 0.00 | 0.00 | 80 | 1012.7 |
| 20260509170057 | 68 | 209 | 1.0 | 4.0 | 0.00 | 0.00 | 0.00 | 77 | 1012.8 |
| 20260509165557 | 67 | 0 | 1.0 | 4.0 | 0.00 | 0.00 | 0.00 | 79 | 1012.9 |
| 20260509165057 | 67 | 0 | 1.0 | 3.0 | 0.00 | 0.00 | 0.00 | 81 | 1013.0 |
| 20260509164556 | 67 | 230 | 0.0 | 4.0 | 0.00 | 0.00 | 0.00 | 82 | 1013.1 |
| 20260509164058 | 67 | 0 | 0.0 | 4.0 | 0.00 | 0.00 | 0.00 | 82 | 1013.0 |
| 20260509163556 | 67 | 275 | 0.0 | 4.0 | 0.00 | 0.00 | 0.00 | 80 | 1013.1 |
| 20260509163100 | 66 | 0 | 1.0 | 5.0 | 0.00 | 0.00 | 0.00 | 83 | 1013.0 |
| 20260509162558 | 65 | 198 | 2.0 | 5.0 | 0.00 | 0.00 | 0.00 | 82 | 1013.0 |
| 20260509162057 | 65 | 193 | 1.0 | 4.0 | 0.00 | 0.00 | 0.00 | 83 | 1013.0 |
| 20260509161558 | 65 | 172 | 1.0 | 4.0 | 0.00 | 0.00 | 0.00 | 83 | 1013.0 |
| 20260509161057 | 65 | 205 | 2.0 | 4.0 | 0.00 | 0.00 | 0.00 | 83 | 1013.0 |
| 20260509160558 | 65 | 207 | 1.0 | 4.0 | 0.00 | 0.00 | 0.00 | 83 | 1013.0 |
| 20260509160057 | 65 | 164 | 0.0 | 3.0 | 0.00 | 0.00 | 0.00 | 84 | 1013.0 |
| 20260509155557 | 65 | 211 | 1.0 | 3.0 | 0.00 | 0.00 | 0.00 | 84 | 1012.9 |
| 20260509155057 | 65 | 208 | 0.0 | 2.0 | 0.00 | 0.00 | 0.00 | 84 | 1012.8 |
| 20260509154559 | 64 | 0 | 0.0 | 3.0 | 0.00 | 0.00 | 0.00 | 86 | 1012.8 |
| 20260509154100 | 64 | 0 | 1.0 | 4.0 | 0.00 | 0.00 | 0.00 | 86 | 1012.9 |
| 20260509153557 | 64 | 270 | 0.0 | 4.0 | 0.00 | 0.00 | 0.00 | 86 | 1012.9 |
| 20260509153103 | 63 | 81 | 0.0 | 3.0 | 0.00 | 0.00 | 0.00 | 86 | 1012.9 |
| 20260509152557 | 63 | 221 | 1.0 | 4.0 | 0.00 | 0.00 | 0.00 | 86 | 1013.0 |
| 20260509152057 | 63 | 175 | 1.0 | 4.0 | 0.00 | 0.00 | 0.00 | 86 | 1012.9 |
| 20260509151607 | 63 | 0 | 0.0 | 2.0 | 0.00 | 0.00 | 0.00 | 86 | 1012.9 |
| 20260509151100 | 63 | 0 | 0.0 | 2.0 | 0.00 | 0.00 | 0.00 | 87 | 1012.9 |
| 20260509150557 | 62 | 0 | 0.0 | 5.0 | 0.00 | 0.00 | 0.00 | 88 | 1013.0 |
| 20260509150058 | 61 | 173 | 1.0 | 5.0 | 0.00 | 0.00 | 0.00 | 89 | 1012.9 |
| 20260509145601 | 61 | 0 | 0.0 | 3.0 | 0.00 | 0.00 | 0.00 | 89 | 1012.9 |
| 20260509145057 | 61 | 0 | 0.0 | 2.0 | 0.00 | 0.00 | 0.00 | 90 | 1013.0 |
| 20260509144555 | 61 | 0 | 1.0 | 2.0 | 0.00 | 0.00 | 0.00 | 90 | 1013.0 |
| 20260509144057 | 61 | 0 | 0.0 | 3.0 | 0.00 | 0.00 | 0.00 | 90 | 1013.0 |
| 20260509143557 | 60 | 177 | 1.0 | 3.0 | 0.00 | 0.00 | 0.00 | 90 | 1013.0 |
| 20260509143102 | 60 | 175 | 1.0 | 3.0 | 0.00 | 0.00 | 0.00 | 90 | 1012.9 |
| 20260509142558 | 60 | 0 | 0.0 | 2.0 | 0.00 | 0.00 | 0.00 | 91 | 1012.9 |
| 20260509142057 | 60 | 0 | 1.0 | 2.0 | 0.00 | 0.00 | 0.00 | 91 | 1012.9 |
| 20260509141600 | 60 | 0 | 0.0 | 2.0 | 0.00 | 0.00 | 0.00 | 91 | 1013.0 |
| 20260509141057 | 60 | 0 | 0.0 | 2.0 | 0.00 | 0.00 | 0.00 | 91 | 1012.9 |
| 20260509140557 | 60 | 0 | 0.0 | 2.0 | 0.00 | 0.00 | 0.00 | 91 | 1012.9 |
| 20260509140056 | 60 | 0 | 0.0 | 3.0 | 0.00 | 0.00 | 0.00 | 91 | 1012.8 |
| 20260509135559 | 60 | 0 | 1.0 | 3.0 | 0.00 | 0.00 | 0.00 | 91 | 1012.6 |
| 20260509135057 | 60 | 202 | 0.0 | 2.0 | 0.00 | 0.00 | 0.00 | 92 | 1012.4 |
| 20260509134612 | 60 | 0 | 0.0 | 2.0 | 0.00 | 0.00 | 0.00 | 92 | 1012.3 |
| 20260509134056 | 59 | 202 | 0.0 | 2.0 | 0.00 | 0.00 | 0.00 | 92 | 1012.2 |
| 20260509133559 | 59 | 0 | 0.0 | 2.0 | 0.00 | 0.00 | 0.00 | 93 | 1012.3 |
| 20260509133056 | 59 | 0 | 0.0 | 3.0 | 0.00 | 0.00 | 0.00 | 93 | 1012.1 |
| 20260509132557 | 59 | 224 | 1.0 | 3.0 | 0.00 | 0.00 | 0.00 | 93 | 1012.2 |
| 20260509132100 | 59 | 0 | 0.0 | 2.0 | 0.00 | 0.00 | 0.00 | 93 | 1012.2 |
| 20260509131634 | 58 | 214 | 0.0 | 2.0 | 0.00 | 0.00 | 0.00 | 93 | 1012.2 |
| 20260509131056 | 58 | 0 | 0.0 | 2.0 | 0.00 | 0.00 | 0.00 | 93 | 1012.2 |
| 20260509130556 | 58 | 191 | 0.0 | 2.0 | 0.00 | 0.00 | 0.00 | 94 | 1012.3 |
| 20260509130132 | 58 | 0 | 0.0 | 2.0 | 0.00 | 0.00 | 0.00 | 94 | 1012.3 |
| 20260509125558 | 58 | 0 | 0.0 | 1.0 | 0.00 | 0.00 | 0.00 | 94 | 1012.4 |
| 20260509125058 | 58 | 0 | 0.0 | 2.0 | 0.00 | 0.00 | 0.00 | 94 | 1012.3 |
| 20260509124602 | 58 | 0 | 0.0 | 2.0 | 0.00 | 0.00 | 0.00 | 94 | 1012.4 |
| 20260509124057 | 58 | 220 | 1.0 | 2.0 | 0.00 | 0.00 | 0.00 | 94 | 1012.4 |
| 20260509123559 | 58 | 0 | 0.0 | 2.0 | 0.00 | 0.00 | 0.00 | 94 | 1012.6 |
| 20260509123105 | 58 | 0 | 0.0 | 0.0 | 0.00 | 0.00 | 0.00 | 94 | 1012.7 |
| 20260509122557 | 58 | 0 | 0.0 | 0.0 | 0.00 | 0.00 | 0.00 | 94 | 1012.6 |
| 20260509122100 | 58 | 0 | 0.0 | 0.0 | 0.00 | 0.00 | 0.00 | 94 | 1012.6 |
| 20260509121559 | 58 | 0 | 0.0 | 0.0 | 0.00 | 0.00 | 0.00 | 94 | 1012.6 |
| 20260509121100 | 58 | 0 | 0.0 | 0.0 | 0.00 | 0.00 | 0.00 | 94 | 1012.6 |
| 20260509120559 | 58 | 0 | 0.0 | 0.0 | 0.00 | 0.00 | 0.00 | 94 | 1012.5 |
| 20260509120106 | 58 | 0 | 0.0 | 0.0 | 0.00 | 0.00 | 0.00 | 94 | 1012.5 |
| 20260509115556 | 57 | 0 | 0.0 | 0.0 | 0.00 | 0.00 | 0.00 | 95 | 1012.4 |
| 20260509115056 | 57 | 0 | 0.0 | 0.0 | 0.00 | 0.00 | 0.00 | 95 | 1012.3 |
| 20260509114609 | 57 | 0 | 0.0 | 0.0 | 0.00 | 0.00 | 0.00 | 95 | 1012.2 |
| 20260509114057 | 57 | 0 | 0.0 | 0.0 | 0.00 | 0.00 | 0.00 | 95 | 1012.2 |
| 20260509113556 | 57 | 0 | 0.0 | 0.0 | 0.00 | 0.00 | 0.00 | 95 | 1012.2 |
| 20260509113101 | 57 | 0 | 0.0 | 0.0 | 0.00 | 0.00 | 0.00 | 95 | 1012.0 |
| 20260509112557 | 57 | 0 | 0.0 | 0.0 | 0.00 | 0.00 | 0.00 | 95 | 1011.9 |
| 20260509112057 | 57 | 0 | 0.0 | 0.0 | 0.00 | 0.00 | 0.00 | 95 | 1011.8 |
| 20260509111556 | 57 | 0 | 0.0 | 0.0 | 0.00 | 0.00 | 0.00 | 95 | 1011.8 |
| 20260509111057 | 56 | 0 | 0.0 | 0.0 | 0.00 | 0.00 | 0.00 | 95 | 1011.7 |
| 20260509110558 | 56 | 0 | 0.0 | 0.0 | 0.00 | 0.00 | 0.00 | 95 | 1011.8 |
| 20260509110104 | 56 | 0 | 0.0 | 0.0 | 0.00 | 0.00 | 0.00 | 95 | 1011.8 |
| 20260509105559 | 56 | 0 | 0.0 | 0.0 | 0.00 | 0.00 | 0.00 | 95 | 1011.7 |
| 20260509105057 | 56 | 0 | 0.0 | 0.0 | 0.00 | 0.00 | 0.00 | 94 | 1011.6 |
| 20260509104603 | 56 | 0 | 0.0 | 0.0 | 0.00 | 0.00 | 0.00 | 94 | 1011.4 |
| 20260509104056 | 56 | 0 | 0.0 | 0.0 | 0.00 | 0.00 | 0.00 | 94 | 1011.6 |
| 20260509103556 | 56 | 0 | 0.0 | 0.0 | 0.00 | 0.00 | 0.00 | 94 | 1011.4 |
| 20260509103055 | 56 | 0 | 0.0 | 0.0 | 0.00 | 0.00 | 0.00 | 94 | 1011.5 |
| 20260509102557 | 56 | 0 | 0.0 | 0.0 | 0.00 | 0.00 | 0.00 | 94 | 1011.2 |
| 20260509102057 | 56 | 0 | 0.0 | 0.0 | 0.00 | 0.00 | 0.00 | 94 | 1011.1 |
| 20260509101555 | 56 | 0 | 0.0 | 0.0 | 0.00 | 0.00 | 0.00 | 94 | 1011.1 |
| 20260509101100 | 56 | 0 | 0.0 | 0.0 | 0.00 | 0.00 | 0.00 | 94 | 1011.1 |
| 20260509100557 | 56 | 0 | 0.0 | 0.0 | 0.00 | 0.00 | 0.00 | 94 | 1011.2 |
| 20260509100055 | 56 | 0 | 0.0 | 0.0 | 0.00 | 0.00 | 0.00 | 94 | 1011.1 |
| 20260509095601 | 56 | 0 | 0.0 | 0.0 | 0.00 | 0.00 | 0.00 | 94 | 1011.1 |
| 20260509095100 | 56 | 0 | 0.0 | 0.0 | 0.00 | 0.00 | 0.00 | 94 | 1011.4 |
| 20260509094611 | 56 | 0 | 0.0 | 0.0 | 0.00 | 0.00 | 0.00 | 93 | 1011.3 |
| 20260509094100 | 56 | 0 | 0.0 | 0.0 | 0.00 | 0.00 | 0.00 | 94 | 1011.6 |
| 20260509093557 | 56 | 0 | 0.0 | 0.0 | 0.00 | 0.00 | 0.00 | 93 | 1011.8 |
| 20260509093054 | 56 | 0 | 0.0 | 0.0 | 0.00 | 0.00 | 0.00 | 93 | 1011.5 |
| 20260509092559 | 56 | 0 | 0.0 | 0.0 | 0.00 | 0.00 | 0.00 | 93 | 1011.6 |
| 20260509092056 | 56 | 0 | 0.0 | 0.0 | 0.00 | 0.00 | 0.00 | 93 | 1011.6 |
| 20260509091559 | 56 | 0 | 0.0 | 0.0 | 0.00 | 0.00 | 0.00 | 93 | 1011.5 |
| 20260509091101 | 56 | 0 | 0.0 | 0.0 | 0.00 | 0.00 | 0.00 | 92 | 1011.4 |
| 20260509090557 | 56 | 0 | 0.0 | 0.0 | 0.00 | 0.00 | 0.00 | 92 | 1011.4 |
| 20260509090104 | 56 | 0 | 0.0 | 0.0 | 0.00 | 0.00 | 0.00 | 92 | 1011.5 |
| 20260509085557 | 56 | 0 | 0.0 | 0.0 | 0.00 | 0.00 | 0.00 | 92 | 1011.5 |
| 20260509085058 | 56 | 0 | 0.0 | 0.0 | 0.00 | 0.00 | 0.00 | 93 | 1011.5 |
| 20260509084601 | 56 | 0 | 0.0 | 0.0 | 0.00 | 0.00 | 0.00 | 93 | 1011.6 |
| 20260509084058 | 56 | 0 | 0.0 | 0.0 | 0.00 | 0.00 | 0.00 | 93 | 1012.0 |
| 20260509083600 | 56 | 0 | 0.0 | 0.0 | 0.00 | 0.00 | 0.00 | 94 | 1011.9 |
| 20260509083058 | 56 | 0 | 0.0 | 0.0 | 0.00 | 0.00 | 0.00 | 94 | 1011.9 |
| 20260509082556 | 56 | 0 | 0.0 | 0.0 | 0.00 | 0.00 | 0.00 | 94 | 1012.2 |
| 20260509082057 | 56 | 0 | 0.0 | 0.0 | 0.00 | 0.00 | 0.00 | 94 | 1012.1 |
| 20260509081557 | 56 | 0 | 0.0 | 0.0 | 0.00 | 0.00 | 0.00 | 94 | 1012.2 |
| 20260509081057 | 56 | 0 | 0.0 | 0.0 | 0.00 | 0.00 | 0.00 | 94 | 1012.1 |
| 20260509080557 | 56 | 0 | 0.0 | 0.0 | 0.00 | 0.00 | 0.00 | 94 | 1012.0 |
| 20260509080056 | 55 | 0 | 0.0 | 0.0 | 0.00 | 0.00 | 0.00 | 95 | 1012.2 |
| 20260509075557 | 55 | 0 | 0.0 | 0.0 | 0.00 | 0.00 | 0.00 | 95 | 1012.2 |
| 20260509075057 | 55 | 0 | 0.0 | 0.0 | 0.00 | 0.00 | 0.00 | 95 | 1012.2 |
| 20260509074602 | 55 | 0 | 0.0 | 1.0 | 0.00 | 0.00 | 0.00 | 95 | 1012.0 |
| 20260509074057 | 54 | 0 | 0.0 | 1.0 | 0.00 | 0.00 | 0.00 | 96 | 1011.8 |
| 20260509073556 | 54 | 0 | 0.0 | 1.0 | 0.00 | 0.00 | 0.00 | 96 | 1012.0 |
| 20260509073101 | 54 | 0 | 0.0 | 0.0 | 0.00 | 0.00 | 0.00 | 96 | 1011.9 |
| 20260509072559 | 53 | 0 | 0.0 | 0.0 | 0.00 | 0.00 | 0.00 | 96 | 1011.7 |
| 20260509072056 | 53 | 0 | 0.0 | 0.0 | 0.00 | 0.00 | 0.00 | 96 | 1012.0 |
| 20260509071600 | 53 | 0 | 0.0 | 0.0 | 0.00 | 0.00 | 0.00 | 96 | 1012.0 |
| 20260509071057 | 53 | 0 | 0.0 | 0.0 | 0.00 | 0.00 | 0.00 | 96 | 1011.9 |
| 20260509070556 | 53 | 0 | 0.0 | 0.0 | 0.00 | 0.00 | 0.00 | 96 | 1011.8 |
| 20260509070105 | 53 | 0 | 0.0 | 0.0 | 0.00 | 0.00 | 0.00 | 96 | 1011.8 |
| 20260509065558 | 53 | 0 | 0.0 | 0.0 | 0.00 | 0.00 | 0.00 | 96 | 1012.0 |
| 20260509065057 | 53 | 0 | 0.0 | 0.0 | 0.00 | 0.00 | 0.00 | 96 | 1012.0 |
| 20260509064556 | 53 | 0 | 0.0 | 0.0 | 0.00 | 0.00 | 0.00 | 96 | 1012.0 |
| 20260509064057 | 53 | 0 | 0.0 | 0.0 | 0.00 | 0.00 | 0.00 | 96 | 1011.9 |
| 20260509063558 | 53 | 0 | 0.0 | 0.0 | 0.00 | 0.00 | 0.00 | 96 | 1011.9 |
| 20260509063058 | 53 | 0 | 0.0 | 0.0 | 0.00 | 0.00 | 0.00 | 95 | 1011.9 |
| 20260509062557 | 52 | 0 | 0.0 | 0.0 | 0.00 | 0.00 | 0.00 | 96 | 1012.0 |
| 20260509062057 | 52 | 0 | 0.0 | 0.0 | 0.00 | 0.00 | 0.00 | 95 | 1012.0 |
| 20260509061612 | 52 | 0 | 0.0 | 0.0 | 0.00 | 0.00 | 0.00 | 95 | 1011.9 |
| 20260509061057 | 52 | 0 | 0.0 | 0.0 | 0.00 | 0.00 | 0.00 | 95 | 1011.9 |
| 20260509060557 | 52 | 0 | 0.0 | 0.0 | 0.00 | 0.00 | 0.00 | 95 | 1012.1 |
| 20260509055559 | 53 | 0 | 0.0 | 1.0 | 0.00 | 0.00 | 0.00 | 95 | 1012.2 |
| 20260509055057 | 53 | 0 | 0.0 | 1.0 | 0.00 | 0.00 | 0.00 | 95 | 1012.1 |
| 20260509054614 | 52 | 0 | 0.0 | 0.0 | 0.00 | 0.00 | 0.00 | 95 | 1012.1 |
| 20260509054057 | 52 | 0 | 0.0 | 0.0 | 0.00 | 0.00 | 0.00 | 95 | 1012.2 |
| 20260509053557 | 53 | 0 | 0.0 | 0.0 | 0.00 | 0.00 | 0.00 | 95 | 1012.3 |
| 20260509053143 | 52 | 0 | 0.0 | 0.0 | 0.00 | 0.00 | 0.00 | 95 | 1012.4 |
| 20260509052600 | 52 | 0 | 0.0 | 0.0 | 0.00 | 0.00 | 0.00 | 94 | 1012.4 |
| 20260509052056 | 53 | 0 | 0.0 | 0.0 | 0.00 | 0.00 | 0.00 | 94 | 1012.4 |
| 20260509051556 | 53 | 0 | 0.0 | 0.0 | 0.00 | 0.00 | 0.00 | 94 | 1012.4 |
| 20260509051057 | 53 | 0 | 0.0 | 0.0 | 0.00 | 0.00 | 0.00 | 95 | 1012.4 |
| 20260509050556 | 52 | 0 | 0.0 | 0.0 | 0.00 | 0.00 | 0.00 | 95 | 1012.5 |
| 20260509050100 | 52 | 0 | 0.0 | 0.0 | 0.00 | 0.00 | 0.00 | 95 | 1012.5 |
| 20260509045557 | 52 | 0 | 0.0 | 0.0 | 0.00 | 0.00 | 0.00 | 94 | 1012.6 |
| 20260509045056 | 53 | 0 | 0.0 | 0.0 | 0.00 | 0.00 | 0.00 | 95 | 1012.7 |
| 20260509044558 | 52 | 0 | 0.0 | 0.0 | 0.00 | 0.00 | 0.00 | 94 | 1012.7 |
| 20260509044057 | 52 | 0 | 0.0 | 0.0 | 0.00 | 0.00 | 0.00 | 94 | 1012.8 |
| 20260509043558 | 53 | 0 | 0.0 | 0.0 | 0.00 | 0.00 | 0.00 | 94 | 1012.9 |
| 20260509043058 | 52 | 0 | 0.0 | 0.0 | 0.00 | 0.00 | 0.00 | 94 | 1012.9 |
| 20260509042557 | 52 | 0 | 0.0 | 0.0 | 0.00 | 0.00 | 0.00 | 94 | 1012.9 |
| 20260509042059 | 52 | 0 | 0.0 | 0.0 | 0.00 | 0.00 | 0.00 | 94 | 1012.8 |
| 20260509041559 | 53 | 0 | 0.0 | 0.0 | 0.00 | 0.00 | 0.00 | 94 | 1012.8 |
| 20260509041056 | 53 | 0 | 0.0 | 0.0 | 0.00 | 0.00 | 0.00 | 93 | 1012.9 |
| 20260509040556 | 53 | 0 | 0.0 | 0.0 | 0.00 | 0.00 | 0.00 | 93 | 1013.0 |
| 20260509040111 | 53 | 0 | 0.0 | 0.0 | 0.00 | 0.00 | 0.00 | 93 | 1013.0 |
| 20260509035556 | 53 | 0 | 0.0 | 0.0 | 0.00 | 0.00 | 0.00 | 93 | 1013.0 |
| 20260509035101 | 53 | 0 | 0.0 | 0.0 | 0.00 | 0.00 | 0.00 | 92 | 1012.9 |
| 20260509034622 | 53 | 0 | 0.0 | 0.0 | 0.00 | 0.00 | 0.00 | 92 | 1013.0 |
| 20260509034057 | 54 | 0 | 0.0 | 0.0 | 0.00 | 0.00 | 0.00 | 92 | 1013.2 |
| 20260509033556 | 54 | 0 | 0.0 | 0.0 | 0.00 | 0.00 | 0.00 | 91 | 1013.1 |
| 20260509033055 | 54 | 0 | 0.0 | 0.0 | 0.00 | 0.00 | 0.00 | 91 | 1013.2 |
| 20260509032600 | 54 | 0 | 0.0 | 0.0 | 0.00 | 0.00 | 0.00 | 91 | 1013.2 |
| 20260509032057 | 54 | 0 | 0.0 | 0.0 | 0.00 | 0.00 | 0.00 | 91 | 1013.3 |
| 20260509031557 | 54 | 0 | 0.0 | 0.0 | 0.00 | 0.00 | 0.00 | 91 | 1013.4 |
| 20260509031057 | 55 | 0 | 0.0 | 0.0 | 0.00 | 0.00 | 0.00 | 90 | 1013.5 |
| 20260509030558 | 55 | 0 | 0.0 | 0.0 | 0.00 | 0.00 | 0.00 | 89 | 1013.5 |
| 20260509030110 | 55 | 0 | 0.0 | 0.0 | 0.00 | 0.00 | 0.00 | 89 | 1013.6 |
| 20260509025554 | 55 | 0 | 0.0 | 0.0 | 0.00 | 0.00 | 0.00 | 89 | 1013.6 |
| 20260509025055 | 56 | 0 | 0.0 | 0.0 | 0.00 | 0.00 | 0.00 | 88 | 1013.5 |
| 20260509024555 | 56 | 0 | 0.0 | 0.0 | 0.00 | 0.00 | 0.00 | 88 | 1013.3 |
| 20260509024055 | 56 | 0 | 0.0 | 0.0 | 0.00 | 0.00 | 0.00 | 88 | 1013.3 |
| 20260509023558 | 57 | 0 | 0.0 | 0.0 | 0.00 | 0.00 | 0.00 | 87 | 1013.3 |
| 20260509023058 | 57 | 0 | 0.0 | 0.0 | 0.00 | 0.00 | 0.00 | 86 | 1013.4 |
| 20260509022554 | 57 | 0 | 0.0 | 0.0 | 0.00 | 0.00 | 0.00 | 85 | 1013.6 |
| 20260509022055 | 58 | 0 | 0.0 | 0.0 | 0.00 | 0.00 | 0.00 | 84 | 1013.5 |
| 20260509021559 | 58 | 0 | 0.0 | 0.0 | 0.00 | 0.00 | 0.00 | 83 | 1013.5 |
| 20260509021051 | 58 | 0 | 0.0 | 0.0 | 0.00 | 0.00 | 0.00 | 82 | 1013.4 |
| 20260509020551 | 59 | 0 | 0.0 | 0.0 | 0.00 | 0.00 | 0.00 | 82 | 1013.5 |
| 20260509020058 | 60 | 0 | 0.0 | 1.0 | 0.00 | 0.00 | 0.00 | 78 | 1013.5 |
| 20260509015555 | 61 | 0 | 0.0 | 1.0 | 0.00 | 0.00 | 0.00 | 77 | 1013.4 |
| 20260509015056 | 61 | 180 | 0.0 | 1.0 | 0.00 | 0.00 | 0.00 | 74 | 1013.5 |
| 20260509014555 | 61 | 0 | 0.0 | 1.0 | 0.00 | 0.00 | 0.00 | 74 | 1013.4 |
| 20260509014055 | 61 | 0 | 0.0 | 1.0 | 0.00 | 0.00 | 0.00 | 74 | 1013.4 |
| 20260509013555 | 62 | 186 | 0.0 | 1.0 | 0.00 | 0.00 | 0.00 | 73 | 1013.4 |
| 20260509013111 | 62 | 0 | 0.0 | 1.0 | 0.00 | 0.00 | 0.00 | 72 | 1013.2 |
| 20260509012555 | 62 | 0 | 0.0 | 2.0 | 0.00 | 0.00 | 0.00 | 72 | 1013.2 |
| 20260509012055 | 62 | 0 | 0.0 | 2.0 | 0.00 | 0.00 | 0.00 | 72 | 1013.2 |
| 20260509011606 | 62 | 0 | 0.0 | 2.0 | 0.00 | 0.00 | 0.00 | 72 | 1013.3 |
| 20260509011054 | 62 | 0 | 0.0 | 2.0 | 0.00 | 0.00 | 0.00 | 73 | 1013.2 |
| 20260509010554 | 62 | 0 | 0.0 | 2.0 | 0.00 | 0.00 | 0.00 | 72 | 1013.1 |
| 20260509010100 | 62 | 0 | 0.0 | 2.0 | 0.00 | 0.00 | 0.00 | 72 | 1013.1 |
| 20260509005553 | 63 | 175 | 0.0 | 2.0 | 0.00 | 0.00 | 0.00 | 72 | 1013.1 |
| 20260509005055 | 63 | 0 | 0.0 | 1.0 | 0.00 | 0.00 | 0.00 | 72 | 1013.1 |
| 20260509004606 | 63 | 0 | 0.0 | 1.0 | 0.00 | 0.00 | 0.00 | 71 | 1013.2 |
| 20260509004055 | 63 | 0 | 0.0 | 2.0 | 0.00 | 0.00 | 0.00 | 71 | 1013.2 |
| 20260509003559 | 64 | 0 | 0.0 | 2.0 | 0.00 | 0.00 | 0.00 | 71 | 1013.1 |
| 20260509003134 | 64 | 229 | 0.0 | 2.0 | 0.00 | 0.00 | 0.00 | 70 | 1013.1 |
| 20260509002555 | 64 | 0 | 0.0 | 3.0 | 0.00 | 0.00 | 0.00 | 70 | 1013.0 |
| 20260509002055 | 64 | 0 | 0.0 | 3.0 | 0.00 | 0.00 | 0.00 | 70 | 1013.1 |
| 20260509001605 | 65 | 187 | 0.0 | 3.0 | 0.00 | 0.00 | 0.00 | 69 | 1013.3 |
| 20260509001052 | 65 | 156 | 0.0 | 4.0 | 0.00 | 0.00 | 0.00 | 69 | 1013.3 |
| 20260509000558 | 65 | 178 | 1.0 | 4.0 | 0.00 | 0.00 | 0.00 | 67 | 1013.2 |
| 20260509000111 | 65 | 215 | 0.0 | 3.0 | 0.00 | 0.00 | 0.00 | 67 | 1013.3 |
| 20260508235555 | 65 | 203 | 1.0 | 4.0 | 0.00 | 0.00 | 0.00 | 66 | 1013.2 |
| 20260508235100 | 66 | 184 | 1.0 | 4.0 | 0.00 | 0.00 | 0.00 | 65 | 1013.2 |
| 20260508234555 | 66 | 0 | 0.0 | 3.0 | 0.00 | 0.00 | 0.00 | 65 | 1013.1 |
| 20260508234100 | 66 | 219 | 0.0 | 4.0 | 0.00 | 0.00 | 0.00 | 64 | 1013.1 |
| 20260508233557 | 67 | 187 | 1.0 | 4.0 | 0.00 | 0.00 | 0.00 | 63 | 1013.3 |
| 20260508233058 | 67 | 188 | 1.0 | 3.0 | 0.00 | 0.00 | 0.00 | 63 | 1013.4 |
| 20260508232556 | 67 | 187 | 0.0 | 2.0 | 0.00 | 0.00 | 0.00 | 63 | 1013.3 |
| 20260508232057 | 67 | 175 | 0.0 | 2.0 | 0.00 | 0.00 | 0.00 | 62 | 1013.3 |
| 20260508231557 | 67 | 185 | 1.0 | 4.0 | 0.00 | 0.00 | 0.00 | 61 | 1013.2 |
| 20260508231057 | 67 | 0 | 1.0 | 4.0 | 0.00 | 0.00 | 0.00 | 60 | 1013.1 |
| 20260508230558 | 67 | 182 | 1.0 | 3.0 | 0.00 | 0.00 | 0.00 | 59 | 1013.2 |
| 20260508230056 | 68 | 159 | 0.0 | 3.0 | 0.00 | 0.00 | 0.00 | 59 | 1013.2 |
| 20260508225557 | 68 | 185 | 1.0 | 6.0 | 0.00 | 0.00 | 0.00 | 58 | 1013.3 |
| 20260508225057 | 68 | 188 | 1.0 | 6.0 | 0.00 | 0.00 | 0.00 | 58 | 1013.4 |
| 20260508224605 | 68 | 181 | 2.0 | 4.0 | 0.00 | 0.00 | 0.00 | 57 | 1013.5 |
| 20260508224057 | 68 | 196 | 1.0 | 4.0 | 0.00 | 0.00 | 0.00 | 57 | 1013.5 |
| 20260508223557 | 68 | 171 | 1.0 | 4.0 | 0.00 | 0.00 | 0.00 | 55 | 1013.6 |
| 20260508223057 | 68 | 212 | 1.0 | 4.0 | 0.00 | 0.00 | 0.00 | 57 | 1013.5 |
| 20260508222557 | 68 | 210 | 1.0 | 4.0 | 0.00 | 0.00 | 0.00 | 59 | 1013.5 |
| 20260508222057 | 68 | 167 | 1.0 | 4.0 | 0.00 | 0.00 | 0.00 | 58 | 1013.6 |
| 20260508221559 | 68 | 194 | 0.0 | 3.0 | 0.00 | 0.00 | 0.00 | 58 | 1013.5 |
| 20260508221057 | 68 | 191 | 0.0 | 5.0 | 0.00 | 0.00 | 0.00 | 61 | 1013.6 |
| 20260508220557 | 69 | 207 | 1.0 | 5.0 | 0.00 | 0.00 | 0.00 | 57 | 1013.7 |
| 20260508220057 | 69 | 184 | 2.0 | 4.0 | 0.00 | 0.00 | 0.00 | 56 | 1013.7 |
| 20260508215557 | 68 | 191 | 1.0 | 3.0 | 0.00 | 0.00 | 0.00 | 58 | 1013.7 |
| 20260508215100 | 68 | 206 | 1.0 | 4.0 | 0.00 | 0.00 | 0.00 | 58 | 1013.7 |
| 20260508214556 | 68 | 189 | 1.0 | 4.0 | 0.00 | 0.00 | 0.00 | 56 | 1013.7 |
| 20260508214057 | 68 | 0 | 1.0 | 4.0 | 0.00 | 0.00 | 0.00 | 57 | 1013.6 |
| 20260508213557 | 68 | 186 | 1.0 | 4.0 | 0.00 | 0.00 | 0.00 | 57 | 1013.6 |
| 20260508213103 | 69 | 181 | 2.0 | 4.0 | 0.00 | 0.00 | 0.00 | 55 | 1013.6 |
| 20260508212557 | 69 | 180 | 1.0 | 4.0 | 0.00 | 0.00 | 0.00 | 57 | 1013.5 |
| 20260508212056 | 69 | 0 | 0.0 | 4.0 | 0.00 | 0.00 | 0.00 | 57 | 1013.4 |
| 20260508211559 | 69 | 200 | 1.0 | 4.0 | 0.00 | 0.00 | 0.00 | 58 | 1013.6 |
| 20260508211100 | 69 | 246 | 1.0 | 3.0 | 0.00 | 0.00 | 0.00 | 60 | 1013.6 |
| 20260508210557 | 69 | 0 | 0.0 | 4.0 | 0.00 | 0.00 | 0.00 | 61 | 1013.7 |
| 20260508210055 | 69 | 192 | 2.0 | 4.0 | 0.00 | 0.00 | 0.00 | 57 | 1013.6 |
| 20260508205556 | 69 | 190 | 0.0 | 3.0 | 0.00 | 0.00 | 0.00 | 55 | 1013.5 |
| 20260508205057 | 69 | 169 | 0.0 | 3.0 | 0.00 | 0.00 | 0.00 | 59 | 1013.6 |
| 20260508204600 | 69 | 0 | 1.0 | 3.0 | 0.00 | 0.00 | 0.00 | 59 | 1013.5 |
| 20260508204056 | 69 | 198 | 0.0 | 3.0 | 0.00 | 0.00 | 0.00 | 59 | 1013.7 |